Location: Ciserano
(45.5833°N, 9.6000°E)
Time: 05:40:45
(UTC+00:00)

ADEOS - Pass Details

Date: 29 November 2020
Orbit: 792 x 795 km, 98.9° (Epoch: 27 January)

Event Time Altitude Azimuth Distance (km) Brightness Sun altitude
Rises 04:26:52 0° 11° (N) 3,309 6.8 -22.6°
Reaches altitude 10° 04:29:13 10° 8° (N) 2,375 6.0 -22.2°
Maximum altitude 04:34:23 62° 289° (WNW) 890 3.5 -21.3°
Drops below altitude 10° 04:39:31 10° 209° (SSW) 2,357 5.8 -20.4°
Sets 04:41:50 0° 206° (SSW) 3,281 6.6 -20.0°
